Volver al catálogo

SCOUT X-4 R/B

ActivoPO
NORAD 809·ROCKET BODY·🇺🇸 United States

Lanzado Jun 4, 1964 desde Vandenberg Space Force Base

Loading…

Próximos Pases (próximas 24 horas)

TLE

ActualizadoSource: Space-Track

Época: Sep 14, 2026, 13:32 UTC

1   809U 64026D   26257.56427329  .00000240  00000-0  12759-3 0  9998
2   809  90.4500 182.3178 0041239 134.9209 225.5334 14.10818771190747

Sigue SCOUT X-4 R/B en tiempo real con AllMySat

Download on the App Store